Zurück zum Katalog

STARLINK-30940

AktivKommunikationVLEO
NORAD 58409·PAYLOAD·🇺🇸 United States

Gestartet Nov 22, 2023 von Cape Canaveral Space Force Station

Loading…

Nächste Überflüge (nächste 24 Stunden)

TLE

AktuellSource: CelesTrak SupGP

Epoche: Sep 15, 2026, 01:40 UTC

1 58409C 23180H   26258.06993056  .00021494  00000+0  77840-3 0  2587
2 58409  43.0009 277.9493 0001759 268.5284 132.8591 15.27571963    18

Verfolge STARLINK-30940 in Echtzeit mit AllMySat

Download on the App Store